Tracking 18984 objects as of 24-Feb-2018
HD Live streaming from Space Station
objects crossing your sky now

FENGYUN 1C DEB

Track FENGYUN 1C DEB now!
10-day predictions


NORAD ID: 30758
Int'l Code: 1999-025ATU
Perigee: 841.6 km
Apogee: 907.8 km
Inclination: 99.0 °
Period: 102.3 minutes
Semi major axis: 7245 km
RCS: 0.0121 m2 (small)
Launch date: May 10, 1999
Source: People's Republic of China (PRC)
Launch site: Taiyaun Space Center, China (TSC)

Note: This is SATELLITE DEBRIS
aabbcc
Your satellite tracking list
Your tracking list is empty




NASA's NSSDC Master Catalog

Two Line Element Set (TLE):
1 30758U 99025ATU 18055.19994743  .00000003  00000-0  27797-4 0  9992
2 30758  99.0161 138.1502 0045696  91.2220 323.0170 14.07618095563839
Source of the keplerian elements: AFSPC